Hourly Weather Rawson

Today, 29 September, Tuesday

Time Temperature Precipitation Wind Pressure Humidity
00:00 +15°C° 0 mm 1 mps 750 mmHg 38%
01:00 +15°C° 0 mm 1 mps 750 mmHg 39%
02:00 +15°C° 0 mm 1 mps 750 mmHg 39%
03:00 +14°C° 0 mm 1 mps 750 mmHg 41%
04:00 +13°C° 0 mm 2 mps 750 mmHg 44%
05:00 +12°C° 0 mm 3 mps 750 mmHg 46%
06:00 +11°C° 0 mm 4 mps 750 mmHg 54%
07:00 +10°C° 0 mm 6 mps 750 mmHg 63%
08:00 +9°C° 0 mm 7 mps 750 mmHg 71%
09:00 +10°C° 0 mm 6 mps 750 mmHg 66%
10:00 +11°C° 0 mm 6 mps 750 mmHg 61%
11:00 +14°C° 0 mm 5 mps 750 mmHg 57%
12:00 +14°C° 0 mm 5 mps 750 mmHg 57%
13:00 +14°C° 0 mm 4 mps 750 mmHg 57%
14:00 +14°C° 0 mm 4 mps 749 mmHg 56%
15:00 +13°C° 0 mm 4 mps 749 mmHg 60%
16:00 +13°C° 0 mm 5 mps 749 mmHg 64%
17:00 +12°C° 0 mm 5 mps 749 mmHg 67%
18:00 +10°C° 0.1 mm 5 mps 750 mmHg 72%
19:00 +9°C° 0.1 mm 5 mps 750 mmHg 77%
20:00 +8°C° 0.1 mm 4 mps 751 mmHg 82%
21:00 +8°C° 0 mm 4 mps 751 mmHg 82%
22:00 +9°C° 0 mm 3 mps 751 mmHg 81%
23:00 +10°C° 0 mm 2 mps 751 mmHg 80%

Tomorrow, 30 September, Wednesday

Time Temperature Precipitation Wind Pressure Humidity
00:00 +9°C° 0.1 mm 3 mps 750 mmHg 83%
01:00 +8°C° 0.1 mm 4 mps 750 mmHg 87%
02:00 +7°C° 0.1 mm 5 mps 750 mmHg 90%
03:00 +7°C° 0.4 mm 6 mps 750 mmHg 87%
04:00 +5°C° 0.4 mm 7 mps 750 mmHg 85%
05:00 +5°C° 0.4 mm 8 mps 751 mmHg 82%
06:00 +4°C° 0.7 mm 7 mps 751 mmHg 80%
07:00 +4°C° 0.7 mm 6 mps 752 mmHg 79%
08:00 +4°C° 0.7 mm 4 mps 752 mmHg 77%
09:00 +6°C° 0 mm 4 mps 753 mmHg 65%
10:00 +8°C° 0 mm 4 mps 753 mmHg 54%
11:00 +11°C° 0 mm 3 mps 754 mmHg 42%
12:00 +12°C° 0 mm 4 mps 754 mmHg 39%
13:00 +12°C° 0 mm 4 mps 754 mmHg 36%
14:00 +13°C° 0 mm 5 mps 753 mmHg 33%
15:00 +14°C° 0 mm 5 mps 753 mmHg 31%
16:00 +14°C° 0 mm 6 mps 752 mmHg 29%
17:00 +14°C° 0 mm 6 mps 752 mmHg 27%
18:00 +13°C° 0 mm 6 mps 752 mmHg 28%
19:00 +13°C° 0 mm 6 mps 751 mmHg 28%
20:00 +11°C° 0 mm 6 mps 751 mmHg 28%
21:00 +11°C° 0 mm 7 mps 752 mmHg 31%
22:00 +10°C° 0 mm 8 mps 752 mmHg 34%
23:00 +10°C° 0 mm 9 mps 752 mmHg 37%

Day after tomorrow, 1 October, Thursday

Time Temperature Precipitation Wind Pressure Humidity
00:00 +8°C° 0 mm 9 mps 752 mmHg 40%
01:00 +7°C° 0 mm 10 mps 753 mmHg 43%
02:00 +6°C° 0 mm 10 mps 754 mmHg 47%
03:00 +5°C° 0 mm 10 mps 755 mmHg 48%
04:00 +3°C° 0 mm 9 mps 755 mmHg 49%
05:00 +2°C° 0 mm 9 mps 756 mmHg 51%
06:00 +2°C° 0 mm 9 mps 757 mmHg 49%
07:00 +2°C° 0 mm 9 mps 758 mmHg 48%
08:00 +3°C° 0 mm 9 mps 759 mmHg 47%
09:00 +3°C° 0 mm 9 mps 759 mmHg 44%
10:00 +5°C° 0 mm 9 mps 760 mmHg 41%
11:00 +6°C° 0 mm 9 mps 760 mmHg 39%
12:00 +7°C° 0 mm 10 mps 761 mmHg 34%
13:00 +7°C° 0 mm 10 mps 761 mmHg 30%
14:00 +7°C° 0 mm 11 mps 762 mmHg 26%
15:00 +7°C° 0 mm 11 mps 762 mmHg 26%
16:00 +6°C° 0 mm 11 mps 763 mmHg 27%
17:00 +4°C° 0 mm 11 mps 763 mmHg 28%
18:00 +3°C° 0 mm 10 mps 764 mmHg 34%
19:00 +3°C° 0 mm 10 mps 765 mmHg 41%
20:00 +2°C° 0 mm 9 mps 766 mmHg 47%
21:00 +1°C° 0 mm 9 mps 767 mmHg 48%
22:00 +1°C° 0 mm 9 mps 767 mmHg 48%
23:00 +1°C° 0 mm 8 mps 768 mmHg 49%

2 October, Friday

Time Temperature Precipitation Wind Pressure Humidity
00:00 0°C° 0 mm 8 mps 769 mmHg 50%
01:00 0°C° 0 mm 8 mps 769 mmHg 52%
02:00 0°C° 0 mm 8 mps 770 mmHg 53%
03:00 -1°C° 0 mm 8 mps 770 mmHg 53%
04:00 -1°C° 0 mm 8 mps 771 mmHg 52%
05:00 -1°C° 0 mm 8 mps 772 mmHg 51%
06:00 0°C° 0 mm 8 mps 772 mmHg 48%
07:00 0°C° 0 mm 8 mps 773 mmHg 45%
08:00 +1°C° 0 mm 8 mps 773 mmHg 41%
09:00 +3°C° 0 mm 7 mps 774 mmHg 37%
10:00 +4°C° 0 mm 6 mps 774 mmHg 33%
11:00 +5°C° 0 mm 5 mps 774 mmHg 30%
12:00 +6°C° 0 mm 4 mps 774 mmHg 29%
13:00 +6°C° 0 mm 4 mps 774 mmHg 27%
14:00 +8°C° 0 mm 3 mps 774 mmHg 26%
15:00 +8°C° 0 mm 3 mps 774 mmHg 28%
16:00 +8°C° 0 mm 3 mps 774 mmHg 30%
17:00 +7°C° 0 mm 3 mps 774 mmHg 32%
18:00 +7°C° 0 mm 3 mps 774 mmHg 36%
19:00 +5°C° 0 mm 3 mps 774 mmHg 40%
20:00 +4°C° 0 mm 3 mps 774 mmHg 45%
21:00 +4°C° 0 mm 4 mps 774 mmHg 46%
22:00 +4°C° 0 mm 4 mps 774 mmHg 48%
23:00 +3°C° 0 mm 5 mps 774 mmHg 50%

3 October, Saturday

Time Temperature Precipitation Wind Pressure Humidity
00:00 +2°C° 0 mm 6 mps 774 mmHg 50%
01:00 +2°C° 0 mm 6 mps 774 mmHg 49%
02:00 +2°C° 0 mm 7 mps 774 mmHg 49%
03:00 +2°C° 0 mm 7 mps 773 mmHg 46%
04:00 0°C° 0 mm 7 mps 773 mmHg 43%
05:00 0°C° 0 mm 7 mps 773 mmHg 40%
06:00 +2°C° 0 mm 7 mps 773 mmHg 35%
07:00 +4°C° 0 mm 7 mps 773 mmHg 31%
08:00 +5°C° 0 mm 7 mps 772 mmHg 27%
09:00 +8°C° 0 mm 7 mps 772 mmHg 23%
10:00 +10°C° 0 mm 7 mps 772 mmHg 19%
11:00 +13°C° 0 mm 6 mps 772 mmHg 16%
12:00 +14°C° 0 mm 6 mps 771 mmHg 15%
13:00 +15°C° 0 mm 7 mps 771 mmHg 14%
14:00 +16°C° 0 mm 7 mps 770 mmHg 13%
15:00 +15°C° 0 mm 7 mps 770 mmHg 15%
16:00 +15°C° 0 mm 7 mps 769 mmHg 18%
17:00 +15°C° 0 mm 8 mps 769 mmHg 20%
18:00 +13°C° 0 mm 8 mps 769 mmHg 27%
19:00 +11°C° 0 mm 9 mps 769 mmHg 33%
20:00 +8°C° 0 mm 9 mps 769 mmHg 40%
21:00 +8°C° 0 mm 10 mps 769 mmHg 43%
22:00 +8°C° 0 mm 10 mps 769 mmHg 45%
23:00 +8°C° 0 mm 10 mps 769 mmHg 48%

4 October, Sunday

Time Temperature Precipitation Wind Pressure Humidity
00:00 +7°C° 0 mm 10 mps 769 mmHg 47%
01:00 +7°C° 0 mm 9 mps 769 mmHg 46%
02:00 +7°C° 0 mm 8 mps 768 mmHg 45%
03:00 +7°C° 0 mm 8 mps 768 mmHg 47%
04:00 +6°C° 0 mm 7 mps 768 mmHg 48%
05:00 +7°C° 0 mm 6 mps 768 mmHg 49%
06:00 +8°C° 0 mm 7 mps 768 mmHg 45%
07:00 +10°C° 0 mm 7 mps 768 mmHg 42%
08:00 +11°C° 0 mm 8 mps 768 mmHg 38%
09:00 +12°C° 0 mm 8 mps 767 mmHg 35%
10:00 +13°C° 0 mm 9 mps 767 mmHg 33%
11:00 +15°C° 0 mm 9 mps 766 mmHg 30%
12:00 +16°C° 0 mm 10 mps 765 mmHg 31%
13:00 +16°C° 0 mm 10 mps 765 mmHg 32%
14:00 +17°C° 0 mm 11 mps 764 mmHg 32%
15:00 +16°C° 0 mm 11 mps 763 mmHg 33%
16:00 +16°C° 0 mm 11 mps 763 mmHg 34%
17:00 +16°C° 0 mm 11 mps 762 mmHg 34%
18:00 +14°C° 0 mm 10 mps 762 mmHg 38%
19:00 +13°C° 0 mm 10 mps 762 mmHg 42%
20:00 +12°C° 0 mm 9 mps 762 mmHg 46%
21:00 +11°C° 0 mm 9 mps 761 mmHg 51%
22:00 +11°C° 0 mm 9 mps 761 mmHg 56%
23:00 +10°C° 0 mm 8 mps 761 mmHg 61%
Show more

We Need Your Consent

Meteoprog and our Service Providers may store and access personal data such as cookies, device identifiers or other similar technologies on your device and process such data to personalise content and ads, as well as provide social media features and to analyse the traffic.

  • Store and/or access information on your device

    Cookies, device identifiers or other information can be stored or accessed on your device for the purposes indicated above.

  • Personalised ads and content, ad and content measurement, audience insights, and products development

    Ads and content can be personalised based on a profile. More data can be added to better personalise ads and content. Ad and content performance can be measured. Insights about the audience who saw the ads and content can be derived. Such data can be used to develop or improve user’s experience, systems and software.

By clicking ‘I Agree’ you will allow the use of indicated cookies, device identifiers, web beacons or other similar technologies. Your settings can be changed in the browser on your device.

For certain purposes, legitimate interests may be relied on, rather than consent. You can read more about this in our Privacy and Cookie Policy.